Location: Alphen
(52.1351°N, 4.6549°E)
Time: 00:01:07
(UTC+00:00)

YAOGAN 6 - Pass Details

Date: 27 January 2021
Orbit: 465 x 502 km, 97.0° (Epoch: 26 February)

Event Time Altitude Azimuth Distance (km) Brightness Sun altitude
Rises 06:11:23 0° 7° (N) 2,615 6.2 -11.8°
Reaches altitude 10° 06:13:33 10° 1° (N) 1,727 5.2 -11.5°
Maximum altitude 06:17:04 42° 290° (WNW) 731 3.0 -11.0°
Drops below altitude 10° 06:20:34 10° 219° (SW) 1,710 5.1 -10.5°
Sets 06:22:42 0° 212° (SSW) 2,587 6.1 -10.2°
